Laramie, WY

8:01 AM MDT on June 23, 2017 (GMT -0600)
Laramie Regional

Weather History for KLAR - October, 2011

Change the Weather History Date:

Saturday, October 8, 2011

  Actual Average Record
Temperature  
Mean Temperature 29 °F 45 °F  
Max Temperature 33 °F 59 °F 75 °F (1963)
Min Temperature 24 °F 30 °F -7 °F (1970)
Degree Days  
Heating Degree Days 36 20  
Month to date heating degree days 123 153  
Since 1 July heating degree days 476 678  
Cooling Degree Days 0 0  
Month to date cooling degree days 0 0  
Year to date cooling degree days 126 67  
Moisture  
Dew Point 29 °F    
Average Humidity 89    
Maximum Humidity 100    
Minimum Humidity 78    
Precipitation  
Precipitation 0.12 in 0.02 in 0.47 in (2011)
Month to date precipitation 0.33 0.23  
Year to date precipitation 8.97 9.49  
Sea Level Pressure  
Sea Level Pressure 30.10 in    
Wind  
Wind Speed 14 mph (NNW)    
Max Wind Speed 24 mph    
Max Gust Speed 28 mph    
Visibility 3 miles    
Events Fog , Snow    
T = Trace of Precipitation, MM = Missing Value Source: NWS Daily Summary

Daily Weather History Graph

Daily Weather History Graph

Search for Another Location

Airport or City:

Trip Planner

Search our weather history database for the weather conditions in past years. The results will help you decide how hot, cold, wet, or windy it might be!

Date:

Astronomy

Oct. 08, 2011 Rise Set
Actual Time 7:06 AM MDT 6:33 PM MDT
Civil Twilight 6:38 AM MDT 7:00 PM MDT
Nautical Twilight 6:06 AM MDT 7:32 PM MDT
Astronomical Twilight 5:34 AM MDT 8:04 PM MDT
Moon 4:46 PM MDT (10/8) 3:54 AM MDT (10/8)
Length of Visible Light 12h 21m
Length of Day
11h 26m
Waxing Gibbous, 90% of the Moon is Illuminated
Oct 8
Waxing Gibbous
Oct 11
Full
Oct 19
Last Quarter
Oct 26
New
Nov 2
First Quarter

Hourly Weather History & Observations

Time (MDT) Temp. Windchill Dew Point Humidity Pressure Visibility Wind Dir Wind Speed Gust Speed Precip Events Conditions
12:53 AM 28.0 °F 21.7 °F 23.0 °F 81% 29.87 in 10.0 mi NE 5.8 mph - N/A   Clear
1:53 AM 28.0 °F 21.7 °F 23.0 °F 81% 29.87 in 10.0 mi NNE 5.8 mph - N/A   Clear
2:53 AM 27.0 °F 19.5 °F 24.1 °F 89% 29.89 in 10.0 mi NNE 6.9 mph - N/A   Partly Cloudy
3:53 AM 26.1 °F 19.4 °F 23.0 °F 88% 29.88 in 10.0 mi NNE 5.8 mph - N/A   Clear
4:53 AM 25.0 °F 14.8 °F 23.0 °F 92% 29.92 in 10.0 mi NE 10.4 mph - N/A   Clear
5:53 AM 27.0 °F 21.6 °F 24.1 °F 89% 29.98 in 10.0 mi NNW 4.6 mph - N/A   Mostly Cloudy
6:53 AM 26.6 °F - 23.0 °F 86% 30.03 in 10.0 mi Calm Calm - N/A   Overcast
7:20 AM 26.6 °F 21.2 °F 24.8 °F 93% 30.03 in 10.0 mi West 4.6 mph - N/A   Overcast
7:30 AM 26.6 °F - 24.8 °F 93% 30.03 in 10.0 mi Calm Calm - N/A   Overcast
7:53 AM 28.0 °F 20.0 °F 25.0 °F 88% 30.01 in 10.0 mi NW 8.1 mph - N/A   Overcast
8:33 AM 30.2 °F 21.3 °F 26.6 °F 86% 30.03 in 10.0 mi WNW 10.4 mph - N/A   Overcast
8:53 AM 30.0 °F 22.4 °F 27.0 °F 88% 30.05 in 10.0 mi WNW 8.1 mph - N/A   Overcast
9:03 AM 30.2 °F 24.3 °F 26.6 °F 86% 30.04 in 1.8 mi NW 5.8 mph - 0.00 in Snow Light Snow
9:13 AM 30.2 °F 22.6 °F 28.4 °F 93% 30.05 in 0.8 mi NNW 8.1 mph - 0.00 in Snow Light Snow
9:24 AM 30.2 °F 21.9 °F 28.4 °F 93% 30.04 in 0.5 mi NNW 9.2 mph - 0.01 in Fog , Snow Snow
9:46 AM 30.2 °F 20.8 °F 30.2 °F 100% 30.05 in 0.5 mi NNW 11.5 mph - 0.02 in Fog , Snow Snow
9:53 AM 30.2 °F 21.3 °F 30.2 °F 100% 30.05 in 0.5 mi NNW 10.4 mph - N/A Fog , Snow Snow
10:33 AM 30.2 °F 19.3 °F 30.2 °F 100% 30.05 in 0.2 mi NW 15.0 mph - 0.03 in Fog , Snow Heavy Snow
10:53 AM 30.9 °F 19.8 °F 30.0 °F 96% 30.08 in 0.2 mi NW 16.1 mph 24.2 mph 0.04 in Fog , Snow Heavy Snow
11:37 AM 32.0 °F 20.1 °F 30.2 °F 93% 30.06 in 0.8 mi NW 19.6 mph 24.2 mph 0.01 in Snow Light Snow
11:53 AM 32.0 °F 21.6 °F 32.0 °F 100% 30.06 in 1.0 mi NNW 15.0 mph - N/A Snow Light Snow
11:57 AM 32.0 °F 21.2 °F 32.0 °F 100% 30.06 in 0.5 mi NNW 16.1 mph - 0.01 in Fog , Snow Snow
12:42 PM 32.0 °F 20.5 °F 32.0 °F 100% 30.06 in 0.8 mi NW 18.4 mph - 0.01 in Snow Light Snow
12:51 PM 32.0 °F 20.1 °F 32.0 °F 100% 30.05 in 0.5 mi NNW 19.6 mph - 0.01 in Fog , Snow Snow
12:53 PM 32.0 °F 20.5 °F 32.0 °F 100% 30.07 in 0.5 mi NNW 18.4 mph - 0.01 in Fog , Snow Snow
1:04 PM 33.8 °F 23.2 °F 32.0 °F 93% 30.06 in 1.0 mi NNW 17.3 mph 26.5 mph 0.00 in Snow Light Snow
1:53 PM 32.0 °F 20.8 °F 32.0 °F 100% 30.07 in 1.2 mi NW 17.3 mph 25.3 mph 0.00 in Snow Light Snow
2:08 PM 32.0 °F 20.5 °F 32.0 °F 100% 30.07 in 0.5 mi NNW 18.4 mph - 0.00 in Fog , Snow Snow
2:53 PM 32.0 °F 20.8 °F 32.0 °F 100% 30.10 in 0.5 mi NNW 17.3 mph 24.2 mph 0.01 in Fog , Snow Snow
3:20 PM 32.0 °F 20.1 °F 30.2 °F 93% 30.09 in 0.2 mi NNW 19.6 mph - 0.01 in Fog , Snow Snow
3:53 PM 32.0 °F 19.8 °F 30.9 °F 96% 30.14 in 0.5 mi NNW 20.7 mph 27.6 mph 0.02 in Fog , Snow Snow
4:48 PM 32.0 °F 20.8 °F 30.2 °F 93% 30.12 in 0.5 mi NW 17.3 mph - 0.00 in Fog , Snow Snow
4:53 PM 32.0 °F 20.5 °F 30.9 °F 96% 30.16 in 0.5 mi NW 18.4 mph - 0.00 in Fog , Snow Snow
5:22 PM 32.0 °F 20.1 °F 30.2 °F 93% 30.13 in 0.8 mi NNW 19.6 mph - 0.00 in Snow Light Snow
5:49 PM 30.2 °F 17.1 °F 30.2 °F 100% 30.13 in 1.2 mi NW 21.9 mph - 0.00 in Snow Light Snow
5:53 PM 30.9 °F 18.1 °F 30.9 °F 100% 30.17 in 1.2 mi NW 21.9 mph - 0.00 in Snow Light Snow
6:02 PM 30.2 °F 17.4 °F 30.2 °F 100% 30.14 in 1.5 mi NW 20.7 mph - 0.00 in Snow Light Snow
6:23 PM 30.2 °F 18.1 °F 30.2 °F 100% 30.14 in 2.0 mi NW 18.4 mph - 0.00 in Snow Light Snow
6:53 PM 30.9 °F 18.4 °F 30.0 °F 96% 30.20 in 2.0 mi NW 20.7 mph 26.5 mph 0.00 in Snow Light Snow
7:08 PM 30.2 °F 18.5 °F 30.2 °F 100% 30.17 in 3.0 mi NNW 17.3 mph - 0.00 in Snow Light Snow
7:20 PM 30.2 °F 18.9 °F 30.2 °F 100% 30.18 in 2.0 mi NNW 16.1 mph - 0.00 in Snow Light Snow
7:27 PM 30.2 °F 18.5 °F 30.2 °F 100% 30.18 in 1.5 mi NNW 17.3 mph - 0.00 in Snow Light Snow
7:53 PM 30.9 °F 18.7 °F 30.0 °F 96% 30.21 in 1.2 mi NW 19.6 mph - 0.00 in Snow Light Snow
8:53 PM 30.9 °F 19.1 °F 30.0 °F 96% 30.21 in 2.5 mi NW 18.4 mph - 0.00 in Snow Light Snow
9:34 PM 30.2 °F 17.8 °F 30.2 °F 100% 30.21 in 4.0 mi NW 19.6 mph - 0.00 in Snow Light Snow
9:44 PM 30.2 °F 17.8 °F 30.2 °F 100% 30.21 in 2.5 mi NW 19.6 mph - 0.00 in Snow Light Snow
9:53 PM 30.0 °F 18.3 °F 30.0 °F 100% 30.23 in 2.0 mi NW 17.3 mph - 0.00 in Snow Light Snow
10:07 PM 30.2 °F 18.5 °F 30.2 °F 100% 30.22 in 4.0 mi NW 17.3 mph - 0.00 in Snow Light Snow
10:39 PM 30.2 °F 18.9 °F 28.4 °F 93% 30.22 in 2.5 mi NW 16.1 mph - 0.00 in Snow Light Snow
10:53 PM 30.0 °F 17.9 °F 28.9 °F 96% 30.24 in 2.0 mi NW 18.4 mph - 0.00 in Snow Light Snow
11:13 PM 30.2 °F 18.1 °F 28.4 °F 93% 30.22 in 2.0 mi NW 18.4 mph - 0.00 in Snow Light Snow
11:28 PM 30.2 °F 18.5 °F 28.4 °F 93% 30.22 in 3.0 mi NW 17.3 mph - 0.00 in Snow Light Snow
11:37 PM 30.2 °F 18.5 °F 28.4 °F 93% 30.22 in 2.5 mi NW 17.3 mph - 0.00 in Snow Light Snow
11:45 PM 30.2 °F 18.9 °F 28.4 °F 93% 30.22 in 4.0 mi NW 16.1 mph - 0.00 in Snow Light Snow
11:53 PM 30.0 °F 18.7 °F 28.9 °F 96% 30.23 in 5.0 mi NW 16.1 mph - 0.00 in Snow Light Snow